STARLINK-1798 (46779 NORAD) Tracking and Keplerian Element Data
This shows tracking and keplerian element data for the satellite.
Feedback or suggestion? Click here.
Element | Value |
Catalog | 46779 |
Name | STARLINK-1798 |
Epoch Orbit | 177 |
Epoch Day | 14.91667824 |
Epoch Year | 2021 |
RAAN | 117.4881 |
Inclination | 53.054 |
Eccentricity | 0.0002748 |
Argument of Perigee | 317.6019 |
Mean Anonmoly | 215.2001 |
Mean Motion | 15.62742987 |
Decay Rate | -0.00019874 |
L1 | 1 46779U 20074AS 21014.91667824 -.00019874 00000-0 -21177-3 0 9999 |
L2 | 2 46779 53.0540 117.4881 0002748 317.6019 215.2001 15.62742987 1777 |
Live tracking and technical data element details for STARLINK-1798 (NORAD 46779). STARLINK-1798 can be tracked NOW for your location showing map with azimuth and elevation plus other details from your city location.
Track the satellite on the map from your city or location and see movement details for azimuth, elevation, latitude, longitude, range, height, and movement on the map or in text.
IsCatalogInMostPopularTable: catalog: 46779, numindb: 29
Update: records affected: 1
GetName: 46779 STARLINK-1798
Hit Count: updated at: Sat, 16 Jan 2021 00:09:23 GMT